Regional Weather Roundup
Issued by NWS Burlington, VT

Current Version | Previous Version | Text Only | Print | Product List | Glossary On
Versions: 1 2 3 4 5 6 7 8 9 10 11 12 13 14 15 16 17 18 19 20 21 22 23 24 25 26 27 28 29 30 31 32 33 34 35 36 37 38 39 40 41 42 43 44 45 46 47 48 49 50
000 ASUS41 KBTV 191931 RWRBTV VERMONT REGIONAL WEATHER ROUNDUP NATIONAL WEATHER SERVICE BURLINGTON VT 300 PM EDT MON APR 19 2021 NOTE: "FAIR" INDICATES FEW OR NO CLOUDS BELOW 12,000 FEET WITH NO SIGNIFICANT WEATHER AND/OR OBSTRUCTIONS TO VISIBILITY. * THESE REPORTS ARE NOT UNDER NWS QUALITY CONTROL AND/OR DO NOT REPORT WEATHER SUCH AS PRECIPITATION AND FOG. VTZ001>019-192000- _____VERMONT_____ CITY SKY/WX TMP DP RH WIND PRES REMARKS BURLINGTON PTSUNNY 62 33 33 S9G18 29.75F MONTPELIER CLOUDY 54 37 52 W9 29.80S MORRISVILLE PTSUNNY 56 35 45 S14G24 29.77R ST. JOHNSBURY* N/A 59 42 53 MISG 29.74F LYNDONVILLE* FAIR 55 35 45 CALM 29.76F MIDDLEBURY* FAIR 56 36 47 S12 29.77F RUTLAND* PTSUNNY 58 32 37 SW12G20 29.78S SPRINGFIELD PTSUNNY 61 28 28 SW8 29.78S HIGHGATE* FAIR 63 32 30 S5 29.75F NEWPORT* LGT RAIN 50 40 67 NW7 29.78R BENNINGTON LGT RAIN 50 43 77 S6 29.82R ISLAND POND* N/A 52 N/A N/A SE3 N/A GALLUP MILLS* N/A 57 N/A N/A MISG N/A MT. MANSFIELD* N/A 48 N/A N/A W15 N/A _____LAKE CHAMPLAIN_____ CITY SKY/WX TMP DP RH WIND PRES REMARKS BURTON ISLAND* N/A 55 43 62 NW1 N/A COLCHESTER RF* N/A 48 37 66 S12 N/A DIAMOND ISL* N/A 57 39 51 NW1 N/A $$ NYZ007-026>031-035-052-083-087-192000- _____NORTHERN NEW YORK_____ CITY SKY/WX TMP DP RH WIND PRES REMARKS PLATTSBURGH CLOUDY 59 36 42 SE7 29.75F SARANAC LAKE PTSUNNY 55 24 30 W7 29.73F MASSENA SUNNY 62 25 24 W14G23 29.74F OGDENSBURG* FAIR 63 34 34 SW9G20 29.72F POTSDAM* SUNNY 61 27 27 W21 29.75S WATERTOWN MOSUNNY 59 32 36 W12G20 29.78F FT DRUM MOSUNNY 59 28 31 W15G22 29.77F ALBANY PTSUNNY 57 42 57 VRB3 29.81F GLENS FALLS CLOUDY 59 33 37 SW10 29.78F $$ NHZ002-005-011-192000- _____NEW HAMPSHIRE_____ CITY SKY/WX TMP DP RH WIND PRES REMARKS LEBANON CLOUDY 62 31 31 SW7 29.75F KEENE MOSUNNY 61 38 42 SW13G20 29.79S MT WASHINGTON CLOUDY 34 32 93 W24G31 N/A WCI 21 PLYMOUTH CLOUDY 60 32 35 W13G18 29.75F WHITEFIELD PTSUNNY 58 35 42 SW12 29.75F $$ _____REGIONAL QUEBEC LOCATIONS_____ CITY SKY/WX TMP DP RH WIND PRES REMARKS MONTREAL MOSUNNY 61 41 48 SE13 29.73S QUEBEC CITY PTSUNNY 55 37 50 N8G18 29.73S SHERBROOKE LGT RAIN 54 41 62 SW14 29.73F _____REGIONAL ONTARIO LOCATIONS_____ CITY SKY/WX TMP DP RH WIND PRES REMARKS OTTAWA PTSUNNY 64 34 32 SW12G20 29.71F ______KEY______ VSB - VISIBILITY IN MILES WCI - WIND CHILL INDEX HX - HEAT INDEX $$ NNNN

USA.gov is the U.S. government's official web portal to all federal, state and local government web resources and services.